www.pogodaiklimat.ru
ПОГОДА в Питтсбурге
Время
и дата
16:53 25.09
17:53 25.09
18:53 25.09
19:53 25.09
20:53 25.09
21:53 25.09
22:24 25.09
22:32 25.09
22:53 25.09
23:53 25.09
00:09 26.09
00:17 26.09
00:53 26.09
01:53 26.09
02:53 26.09
03:05 26.09
03:16 26.09
03:53 26.09
04:53 26.09
05:08 26.09
05:53 26.09
06:53 26.09
07:53 26.09
08:53 26.09
09:17 26.09
09:53 26.09
10:53 26.09
11:53 26.09
12:53 26.09
13:53 26.09
14:53 26.09
15:53 26.09
16:53 26.09
17:53 26.09
18:53 26.09
19:53 26.09
20:53 26.09
21:53 26.09
22:53 26.09
23:53 26.09
00:53 27.09
01:53 27.09
02:53 27.09
03:53 27.09
04:53 27.09
05:53 27.09
06:53 27.09
07:53 27.09
Ветер
(напр.,м/с)
Видим. Явления Облачность Т
(С)
Тd
(С)
f
(%)
Тe
(С)
Тes
(С)
Комфортность P
(гПа)
Po
(гПа)
Тmin
(С)
Tmax
(С)
R
(мм)
R24
(мм)
S
(см)
З 4
{12}
16 км 8/2 1320 m
[Ac]
+18.9 +10.0 56 +20 +21 1004.1 959.3
З 5
{8}
16 км 10/2 1800 m
[Ac]
+17.8 +10.6 63 +17 +18 1005.1 960.3
СЗ 4
{10}
11 км слабый дождь 10/8 750 m
[Ac]
+15.0 +11.1 77 +14 +14 1005.9 960.9 +15.0 +22.2 1.5
З 2 8 км слабый дождь, дымка 8/2 1650 m
[Ac]
+13.9 +12.2 89 +13 +13 1006.4 961.2
З 5 16 км 8/5 1200 m
[Ac]
+14.4 +12.2 87 +13 +13 1006.8 961.9
ЮЗ 4 16 км 5/2 1290 m
[Ac]
+13.9 +11.7 87 +12 +12 1006.9 961.9 0.5
ЮЗ 4 16 км 8/8 660 м +13.9 +11.7 87 +12 +12 961.9
ЮЗ 5 16 км 5/5 660 м +13.9 +11.7 87 +12 +12 961.9
ЮЗ 4 16 км ясно +13.9 +11.7 87 +12 +12 1006.9 961.9
ЮЗ 3 16 км 5/5 780 м +13.9 +11.7 87 +13 +13 1006.8 961.9
ЮЗ 4 16 км 8/8 510 м +13.9 +11.7 87 +12 +12 961.9
ЮЗ 5 16 км 8/8 510 м +13.9 +11.7 87 +12 +12 961.9
ЮЗ 5 16 км ясно +13.9 +11.7 87 +12 +12 1006.7 961.9 +13.3 +15.0 0.5
Ю 4 16 км 8/0 2550 m
[Ac]
+13.3 +11.1 87 +12 +12 1006.3 961.5
Ю 4 16 км 10/10 840 м +13.3 +11.1 87 +12 +12 1005.8 960.9
Ю 4 16 км 8/8 750 м +13.3 +11.1 87 +12 +12 960.9
Ю 4 16 км 8/8 750 м +13.3 +11.1 87 +12 +12 960.6
Ю 4 16 км 8/8 1140 м +13.3 +11.1 87 +12 +12 1005.5 960.6 0.3
ЮЗ 6 16 км 8/8 750 м +13.9 +10.6 80 +12 +12 1005.3 960.6
ЮЗ 6 16 км 5/5 780 м +13.3 +10.6 84 +11 +11 960.6
ЮЗ 4 16 км 8/8 540 м +13.3 +10.6 84 +12 +12 1005.7 960.9
ЮЗ 7
{11}
16 км 10/10 510 м +13.9 +10.0 77 +12 +12 1006.2 961.2 +13.3 +13.9 0.3 4.3
З 6
{11}
16 км 8/8 540 м +13.3 +9.4 77 +11 +11 1007.1 961.9
З 6
{10}
16 км 8/8 690 м +14.4 +8.9 70 +13 +13 1007.5 962.5
ЮЗ 7
{10}
16 км 8/8 690 м +14.4 +8.9 70 +12 +13 962.8
З 4
{8}
16 км 8/8 750 м +14.4 +8.3 67 +13 +14 1007.6 962.5
З 6
{11}
16 км 5/5 1110 м +16.7 +7.8 56 +16 +17 1007.1 962.2
З 7
{12}
16 км 8/5 1290 m
[Ac]
+18.3 +7.2 48 +18 +19 1006.9 961.9
З 9
{15}
16 км 8/0 2100 m
[Ac]
+18.3 +4.4 40 +17 +18 1006.6 961.5 +13.3 +20.0
З 7
{14}
16 км 2/2 1800 м +19.4 +5.0 39 +19 +22 1006.6 961.5
З 6
{12}
н/о 8/8 1800 м +18.3 +5.0 41 +18 +19 1007.0 961.9
З 8
{12}
н/о ясно +18.3 +5.0 41 +18 +19 1007.3 962.2
З 11
{16}
16 км 8/0 2850 m
[Ac]
+18.3 +4.4 40 +17 +17 1008.0 962.8
З 6
{10}
16 км 5/0 2850 m
[Ac]
+16.7 +4.4 44 +16 +16 1008.9 963.8
З 4
{13}
16 км 10/2 1650 m
[Ac]
+13.9 +5.6 57 +13 +13 1010.0 964.8 +13.9 +19.4
З 4
{8}
16 км 8/0 2250 m
[Ac]
+12.8 +5.6 62 +11 +11 1010.8 965.4
З 6 16 км ясно +12.2 +5.6 64 +10 +10 1011.1 965.8
З 4 16 км ясно +11.7 +5.6 66 +10 +10 1011.5 966.1
ЮЗ 4 16 км ясно +11.1 +5.6 69 +9 +9 1011.7 966.4
ЮЗ 5 16 км ясно +10.6 +6.1 74 +8 +8 1011.5 966.1
З 6 16 км ясно +10.6 +6.1 74 +7 +7 1011.3 966.1 +10.6 +13.9
З 6 16 км ясно +10.6 +6.1 74 +7 +7 1011.0 965.8
З 6 16 км ясно +10.0 +6.1 77 +7 +7 1011.0 965.8
ЮЗ 4 16 км ясно +10.0 +6.1 77 +7 +7 1011.2 966.1
ЮЗ 4 16 км ясно +9.4 +6.1 80 +7 +7 1011.3 966.1
ЮЗ 4 16 км ясно +8.9 +6.1 83 +6 +6 1011.9 966.4
ЮЗ 5 16 км ясно +8.9 +6.1 83 +5 +5 1012.4 966.7 +8.9 +10.6
З 4 16 км ясно +10.6 +7.2 79 +8 +8 1012.7 967.0
Местоположение метеостанции Allegheny County Airport: широта 40.3547 долгота -79.9217 высота над уровнем моря 382 м.
В архиве по умолчанию представлена погода в Питтсбурге за последние 1-2 суток. Обновление информации о фактической погоде в базе происходит ежечасно! Архивные данные за месяц целиком и за предыдущие месяцы Вы можете получить, выбрав интересующий диапазон дат из раскрывающегося списка и нажав кнопку "Ввод!".
Внимание! Архив погоды МЕТАР в базе сайта по станциям, не включенным в климатический монитор, хранится не более 60 дней. Нет смысла пытаться выбрать более раннюю дату.
*Определитесь, кто Вы:
Внимание! Время в таблицах - местное (без учета летнего времени). Для получения всемирного времени необходимо вычесть поправку, которая равна -5 ч.
Смотрите также архив погоды в соседних городах и на ближайших метеорологических станциях:
Партнеры нашего сайта:      
Пояснения к столбцам:
  • Ветер - указаны скорость ветра в м/с - средняя за 10 мин, порывы в срок и между сроками (в фигурных скобках) и направление, откуда дует ветер: С - северный,
  • СВ - северо-восточный, В - восточный, ЮВ - юго-восточный, Ю - южный, ЮЗ - юго-западный, З - западный, СЗ - северо-западный.
  • Видимость - горизонтальная дальность видимости в метрах или километрах. При видимости от 1 до 10 км при отсутствии осадков обычно наблюдается дымка, при ухудшении видимости до 1 км и менее - туман. В сухую погоду видимость может ухудшаться дымом, пылью или мглою.
  • Явления - указаны атмосферные явления, наблюдавшиеся в срок или в последний час перед сроком; фигурными скобками обозначены явления, наблюдавшиеся между сроками (за 1-3 часа до срока); квадратными скобками обозначены град или гололедные отложения с указанием их диаметра в мм.
  • Облачность - указаны через наклонную черту общая и нижняя облачность в баллах и высота нижней границы облаков в метрах; квадратными скобками обозначены формы облаков: Ci - перистые, Cs - перисто-слоистые, Cc - перисто-кучевые, Ac - высококучевые, As - высокослоистые, Sc - слоисто-кучевые, Ns - слоисто-дождевые, Cu - кучевые, Cb - кучево-дождевые. Подробнее классификацию облаков см. в Атласе облаков (PDF).
  • T - Температура воздуха - температура, измеренная на высоте 2 м над землей.
  • Td - Температура точки росы - температура, при понижении до которой содержащийся в воздухе водяной пар достигнет насыщения.
  • f - Относительная влажность воздуха - влажноcть воздуха, измеренная на высоте 2 м над землей.
  • Te - Эффективная температура - температура, которую ощущает одетый по сезону человек в тени. Характеристика душности погоды. При расчете учитывается влияние влажности воздуха и скорости ветра на теплоощущения человека.
  • Tes - Эффективная температура на солнце - температура, которую ощущает человек, с поправкой на солнечный нагрев. Характеристика знойности погоды. Зависит от высоты солнца над горизонтом, облачности и скорости ветра. Ночью, в пасмурную погоду, а также при ветре 12 м/с и более поправка равна нулю.
  • P - Атмосферное давление - приведенное к уровню моря атмосферное давление.
  • Po - Атмосферное давление - измеренное на уровне метеостанции атмосферное давление.
  • Tmin - Минимальная температура - минимум температуры воздуха на высоте 2 м над землей.
  • Tmax - Максимальная температура - максимум температуры воздуха на высоте 2 м над землей.
  • R - Количество осадков - Количество выпавших осадков за период времени, мм. При наведении курсора мыши на число - период времени, за который выпало указанное количество осадков.
  • R24 - Количество осадков - Количество выпавших осадков за 24 часа, мм.
  • S - Снежный покров - Высота снежного покрова, см. При наведении курсора мыши на число - состояние снежного покрова и степень покрытия местности в баллах.